Home > Weather > Salzburg > Past weeks

Flag for Austria Past Weather in Salzburg, Salzburg, Austria — Yesterday and Last 2 Weeks

Now
74 °F

Overcast.


Feels Like: 75 °F
Forecast: 62 / 77 °F
Wind: 3 mph from Southeast

Location: Salzburg-Flughafen

Current Time: Jul 27, 2016 at 7:26:16 PM

Latest Report: Jul 27, 2016 at 7:00 PM


Visibility: 19 mi

Pressure: 29.93 "Hg

Humidity: 73%

Dew Point: 64 °F

Location of SalzburgLocation

Past Weather in Salzburg — Graph

°F

Salzburg Temperature Yesterday

Maximum temperature yesterday: 77 °F (at 6:00 PM)
Minimum temperature yesterday: 64 °F (at 5:00 AM)
Average temperature yesterday: 69 °F

High & Low Weather Summary for the Past Weeks

 TemperatureHumidityPressure
High84 °F (Jul 20, 5:00 PM)100% (Jul 16, 4:00 AM)30.34 "Hg (Jul 16, 4:00 AM)
Low50 °F (Jul 14, 10:00 AM)37% (Jul 20, 5:00 PM)29.87 "Hg (Jul 22, 5:00 PM)
Average65 °F81%30.08 "Hg
* Reported Jul 12 7:00 PM — Jul 27 6:00 PM, Salzburg, Weather by CustomWeather, © 2016

Note: Actual official high and low records may vary slightly from our data, if they occured in-between our weather recording intervals... More about our weather records

Advertising

Salzburg Weather History for the Previous 24 Hours

Scroll right to see more
 ConditionsComfort  
Time TempWeatherWind HumidityBarometerVisibility
6:00 PM
Wed, Jul 27
76 °FPartly sunny.5 mph73%29.91 "Hg17 mi
5:00 PM80 °FPartly sunny.N/A54%29.91 "Hg14 mi
4:00 PM77 °FPartly sunny.N/A59%29.94 "Hg25 mi
3:00 PM77 °FScattered clouds.N/A61%29.95 "Hg16 mi
2:00 PM76 °FPartly sunny.3 mph71%29.96 "Hg16 mi
1:00 PM74 °FPartly sunny.N/A72%30.00 "Hg19 mi
12:00 PM72 °FOvercast.N/A75%30.02 "Hg19 mi
11:00 AM71 °FOvercast.N/A81%30.03 "Hg9 mi
10:00 AM69 °FOvercast.N/A84%30.04 "Hg16 mi
9:00 AM67 °FLow clouds.N/A88%30.04 "Hg4 mi
8:00 AM64 °FLow clouds.N/A95%30.06 "Hg9 mi
7:00 AM63 °FLow clouds.N/A97%30.06 "Hg4 mi
6:00 AM61 °FRain. Low clouds.N/A99%30.07 "Hg4 mi
5:00 AM61 °FLow clouds.N/A99%30.06 "Hg4 mi
4:00 AM62 °FPassing clouds.N/A97%30.06 "Hg5 mi
3:00 AM63 °FPassing clouds.N/A98%30.08 "Hg6 mi
2:00 AM64 °FPassing clouds.N/A94%30.08 "Hg7 mi
1:00 AM65 °FPassing clouds.N/A91%30.08 "Hg13 mi
10:00 PM
Tue, Jul 26
69 °FPassing clouds.N/A86%30.08 "Hg11 mi
9:00 PM70 °FPassing clouds.N/A83%30.06 "Hg17 mi
8:00 PM74 °FScattered clouds.3 mph68%30.05 "Hg25 mi
7:00 PM76 °FScattered clouds.N/A62%30.03 "Hg17 mi
Weather by CustomWeather, © 2016

See weather overviewHow to use our weather pages